Weather History for Linden, NJ

Change the Weather History Date:

Monday, June 23, 2014

  Actual Average (KEWR) Record (KEWR)
Temperature  
Mean Temperature 74 °F 75 °F  
Max Temperature 83 °F 84 °F 97 °F (1965)
Min Temperature 64 °F 66 °F 51 °F (1992)
Degree Days  
Heating Degree Days 0 0  
Month to date heating degree days 15  
Since 1 June heating degree days 15  
Since 1 July heating degree days 4870  
Cooling Degree Days 8 10  
Month to date cooling degree days 164  
Year to date cooling degree days 240  
Since 1 June cooling degree days 164  
Growing Degree Days 24 (Base 50)    
Moisture  
Dew Point 57 °F    
Average Humidity 56    
Maximum Humidity 81    
Minimum Humidity 39    
Precipitation  
Precipitation 0.00 in 0.13 in 1.10 in (2001)
Month to date precipitation 3.15  
Year to date precipitation 22.04  
Snow  
Snow 0.00 in 0.00 in 0.00 in (2002)
Month to date snowfall 0.0  
Since 1 July snowfall 28.5  
Snow Depth -    
Sea Level Pressure  
Sea Level Pressure 30.11 in    
Wind  
Wind Speed 3 mph (South)    
Max Wind Speed 14 mph    
Max Gust Speed 18 mph    
Visibility 10 miles    
Events      
T = Trace of Precipitation, MM = Missing Value Source: NWS Daily Summary

Daily Weather History Graph

Daily Weather History Graph

Search for Another Location

Airport:

Trip Planner

Search our weather history database for the weather conditions in past years. The results will help you decide how hot, cold, wet, or windy it might be!

Date:

Astronomy

Jun. 23, 2014 Rise Set
Actual Time 5:26 AM EDT 8:31 PM EDT
Civil Twilight 4:53 AM EDT 9:05 PM EDT
Nautical Twilight 4:10 AM EDT 9:47 PM EDT
Astronomical Twilight 3:20 AM EDT 10:37 PM EDT
Moon 2:51 AM EDT (6/23) 5:09 PM EDT (6/23)
Length of Visible Light 16h 11m
Length of Day
15h 04m
Waning Crescent, 13% of the Moon is Illuminated
Jun 23
Waning Crescent
Jun 27
New
Jul 5
First Quarter
Jul 12
Full
Jul 18
Last Quarter

Hourly Weather History & Observations

Time (EDT) Temp. Heat Index Dew Point Humidity Pressure Visibility Wind Dir Wind Speed Gust Speed Precip Events Conditions
12:15 AM 68.2 °F - 54.5 °F 62% 30.05 in 10.0 mi Calm Calm - N/A   Scattered Clouds
12:35 AM 68.9 °F - 54.7 °F 60% 30.05 in 10.0 mi Calm Calm - N/A   Clear
12:55 AM 68.7 °F - 55.0 °F 62% 30.06 in 10.0 mi West 3.5 mph - N/A   Clear
1:15 AM 68.0 °F - 55.4 °F 64% 30.06 in 10.0 mi West 3.5 mph - N/A   Clear
1:35 AM 67.3 °F - 55.6 °F 66% 30.06 in 10.0 mi Calm Calm - N/A   Clear
1:55 AM 67.1 °F - 55.8 °F 67% 30.06 in 10.0 mi Calm Calm - N/A   Clear
2:15 AM 67.3 °F - 55.9 °F 67% 30.07 in 10.0 mi Calm Calm - N/A   Clear
2:35 AM 67.1 °F - 55.9 °F 67% 30.07 in 10.0 mi Calm Calm - N/A   Clear
2:55 AM 66.4 °F - 56.3 °F 70% 30.07 in 10.0 mi Calm Calm - N/A   Clear
3:15 AM 66.7 °F - 56.5 °F 70% 30.07 in 10.0 mi Calm Calm - N/A   Clear
3:35 AM 66.0 °F - 57.7 °F 75% 30.07 in 10.0 mi Calm Calm - N/A   Clear
3:55 AM 65.8 °F - 58.1 °F 76% 30.07 in 10.0 mi Calm Calm - N/A   Clear
4:15 AM 66.0 °F - 58.3 °F 76% 30.07 in 10.0 mi Calm Calm - N/A   Clear
4:35 AM 65.1 °F - 58.3 °F 78% 30.08 in 10.0 mi Calm Calm - N/A   Clear
4:55 AM 65.3 °F - 58.8 °F 80% 30.08 in 10.0 mi Calm Calm - N/A   Clear
5:15 AM 64.8 °F - 58.6 °F 81% 30.08 in 10.0 mi Calm Calm - N/A   Clear
5:35 AM 64.6 °F - 58.1 °F 79% 30.08 in 10.0 mi Calm Calm - N/A   Clear
5:55 AM 64.6 °F - 58.6 °F 81% 30.09 in 10.0 mi Calm Calm - N/A   Clear
6:15 AM 64.6 °F - 57.7 °F 78% 30.10 in 10.0 mi Calm Calm - N/A   Clear
6:35 AM 65.5 °F - 58.5 °F 78% 30.10 in 10.0 mi Calm Calm - N/A   Scattered Clouds
7:15 AM 67.6 °F - 61.0 °F 79% 30.11 in 10.0 mi Calm Calm - N/A   Clear
7:35 AM 69.1 °F - 60.8 °F 75% 30.12 in 10.0 mi Calm Calm - N/A   Clear
7:55 AM 70.2 °F - 60.4 °F 71% 30.12 in 10.0 mi Calm Calm - N/A   Clear
8:15 AM 71.4 °F - 60.6 °F 69% 30.14 in 10.0 mi Calm Calm - N/A   Clear
8:35 AM 71.6 °F - 59.9 °F 66% 30.14 in 10.0 mi Calm Calm - N/A   Clear
8:55 AM 73.0 °F - 60.4 °F 65% 30.14 in 10.0 mi Calm Calm - N/A   Clear
9:15 AM 73.9 °F - 60.1 °F 62% 30.14 in 10.0 mi Calm Calm - N/A   Clear
9:35 AM 75.4 °F - 58.5 °F 56% 30.14 in 10.0 mi Calm Calm - N/A   Clear
10:15 AM 77.2 °F - 56.1 °F 48% 30.14 in 10.0 mi WNW 4.6 mph - N/A   Clear
10:35 AM 78.1 °F - 55.6 °F 46% 30.14 in 10.0 mi WSW 4.6 mph - N/A   Clear
10:55 AM 79.3 °F - 55.0 °F 43% 30.14 in 10.0 mi West 3.5 mph - N/A   Clear
11:35 AM 80.6 °F 80.5 °F 55.8 °F 42% 30.14 in 10.0 mi Calm Calm - N/A   Clear
11:55 AM 81.5 °F 81.3 °F 56.1 °F 42% 30.14 in 10.0 mi SSW 4.6 mph - N/A   Scattered Clouds
12:15 PM 80.1 °F 80.5 °F 57.6 °F 46% 30.14 in 10.0 mi West 4.6 mph - N/A   Scattered Clouds
12:35 PM 81.5 °F 81.3 °F 56.3 °F 42% 30.14 in 10.0 mi SSE 4.6 mph - N/A   Scattered Clouds
12:55 PM 82.0 °F 81.5 °F 55.8 °F 40% 30.14 in 10.0 mi South 4.6 mph - N/A   Mostly Cloudy
1:15 PM 83.7 °F 82.8 °F 56.1 °F 39% 30.13 in 10.0 mi West 5.8 mph - N/A   Mostly Cloudy
1:35 PM 81.5 °F 81.1 °F 55.9 °F 41% 30.13 in 10.0 mi South 8.1 mph - N/A   Mostly Cloudy
1:55 PM 82.4 °F 81.8 °F 55.8 °F 40% 30.13 in 10.0 mi South 8.1 mph - N/A   Mostly Cloudy
2:15 PM 82.6 °F 81.8 °F 55.2 °F 39% 30.13 in 10.0 mi SSW 5.8 mph - N/A   Mostly Cloudy
2:35 PM 82.2 °F 81.9 °F 57.0 °F 42% 30.13 in 10.0 mi SE 11.5 mph - N/A   Mostly Cloudy
2:55 PM 82.9 °F 82.7 °F 58.5 °F 43% 30.12 in 10.0 mi SE 12.7 mph - N/A   Mostly Cloudy
3:15 PM 82.8 °F 82.8 °F 59.4 °F 45% 30.13 in 10.0 mi SSE 11.5 mph - N/A   Mostly Cloudy
3:35 PM 82.8 °F 82.8 °F 59.2 °F 45% 30.12 in 10.0 mi SSE 9.2 mph - N/A   Mostly Cloudy
3:55 PM 83.5 °F 82.9 °F 57.6 °F 41% 30.12 in 10.0 mi South 13.8 mph - N/A   Scattered Clouds
4:15 PM 81.9 °F 81.7 °F 57.2 °F 43% 30.12 in 10.0 mi South 11.5 mph 16.1 mph N/A   Scattered Clouds
4:35 PM 82.4 °F 81.9 °F 56.7 °F 41% 30.12 in 10.0 mi South 10.4 mph 17.3 mph N/A   Scattered Clouds
4:55 PM 82.2 °F 81.6 °F 55.8 °F 40% 30.12 in 10.0 mi South 11.5 mph 18.4 mph N/A   Clear
5:15 PM 81.9 °F 81.3 °F 55.4 °F 40% 30.12 in 10.0 mi South 9.2 mph - N/A   Clear
5:35 PM 82.0 °F 81.5 °F 55.2 °F 40% 30.12 in 10.0 mi South 9.2 mph - N/A   Clear
5:55 PM 81.5 °F 81.1 °F 55.8 °F 41% 30.11 in 10.0 mi South 12.7 mph - N/A   Clear
6:15 PM 81.1 °F 81.0 °F 55.9 °F 42% 30.11 in 10.0 mi South 10.4 mph - N/A   Clear
6:55 PM 80.6 °F 80.4 °F 54.7 °F 41% 30.11 in 10.0 mi South 10.4 mph - N/A   Scattered Clouds
7:15 PM 80.1 °F 80.1 °F 54.7 °F 41% 30.12 in 10.0 mi South 9.2 mph - N/A   Scattered Clouds
7:35 PM 79.5 °F - 55.4 °F 43% 30.12 in 10.0 mi South 11.5 mph - N/A   Clear
7:55 PM 78.8 °F - 55.6 °F 45% 30.12 in 10.0 mi South 6.9 mph - N/A   Clear
8:15 PM 78.3 °F - 56.5 °F 47% 30.12 in 10.0 mi South 8.1 mph - N/A   Clear
8:35 PM 77.5 °F - 56.7 °F 48% 30.12 in 10.0 mi South 6.9 mph - N/A   Clear
8:55 PM 77.0 °F - 57.2 °F 50% 30.12 in 10.0 mi South 4.6 mph - N/A   Clear
9:15 PM 76.5 °F - 57.4 °F 52% 30.12 in 10.0 mi South 5.8 mph - N/A   Clear
9:35 PM 75.9 °F - 58.1 °F 54% 30.13 in 10.0 mi South 5.8 mph - N/A   Clear
9:55 PM 75.2 °F - 57.2 °F 53% 30.13 in 10.0 mi South 6.9 mph - N/A   Clear
10:15 PM 74.7 °F - 56.3 °F 53% 30.14 in 10.0 mi South 4.6 mph - N/A   Clear
10:35 PM 74.1 °F - 55.9 °F 53% 30.15 in 10.0 mi SSW 8.1 mph - N/A   Clear
10:55 PM 73.4 °F - 55.9 °F 54% 30.16 in 10.0 mi SSW 4.6 mph - N/A   Clear
11:15 PM 72.9 °F - 55.2 °F 54% 30.16 in 10.0 mi SSW 3.5 mph - N/A   Clear
11:35 PM 72.5 °F - 54.1 °F 52% 30.17 in 10.0 mi SW 5.8 mph - N/A   Clear
11:55 PM 72.0 °F - 54.3 °F 54% 30.17 in 10.0 mi SW 3.5 mph - N/A   Clear